This demonstration page uses our WeatherBlox Daily Observations layout. Learn more.

Left ArrowRight Arrow

Hourly Observations for October 22, 2021

Temp ( °F °C ) Dew Point ( °F °C ) Humidity (%) Winds ( mph kmh ) Pressure ( in mb ) Visibility ( mi km ) Precip ( " mm )
12:53 am 00:53 Clear 40 4.4 34 1.1 79 79 Calm 30.17 1022 10 16 0.00 0.00
1:53 am 01:53 Clear 38 3.3 34 1.1 86 86 Calm 30.17 1022 10 16 0.00 0.00
2:53 am 02:53 Clear 37 2.8 34 1.1 89 89 Calm 30.15 1021 10 16 0.00 0.00
3:53 am 03:53 Clear 36 2.2 33 0.6 89 89 SSE 3 6 30.13 1020 10 16 0.00 0.00
4:53 am 04:53 Clear 39 3.9 35 1.7 86 86 SE 3 6 30.11 1020 10 16 0.00 0.00
5:53 am 05:53 Clear 39 3.9 35 1.7 86 86 SSE 8 13 30.11 1020 10 16 0.00 0.00
6:53 am 06:53 Clear 37 2.8 34 1.1 89 89 S 8 13 30.10 1019 10 16 0.00 0.00
7:53 am 07:53 Clear 36 2.2 33 0.6 89 89 S 7 11 30.08 1019 10 16 0.00 0.00
8:53 am 08:53 Sunny 40 4.4 36 2.2 86 86 S 7 11 30.06 1018 10 16 0.00 0.00
9:53 am 09:53 Sunny 47 8.3 39 3.9 74 74 S 8 13 30.04 1017 10 16 0.00 0.00
10:53 am 10:53 Sunny 54 12.2 39 3.9 57 57 SSW 13 20 30.03 1017 10 16 0.00 0.00
11:53 am 11:53 Sunny 59 15 41 5 51 51 SW 10 17 30.00 1016 10 16 0.00 0.00
12:53 pm 12:53 Sunny 64 17.8 41 5 43 43 SW 6 9 29.98 1015 10 16 0.00 0.00
1:53 pm 13:53 Sunny 68 20 40 4.4 36 36 VRB 7 11 29.93 1014 10 16 0.00 0.00
2:53 pm 14:53 Sunny 72 22.2 37 2.8 28 28 SE 3 6 29.91 1013 10 16 0.00 0.00
3:53 pm 15:53 Sunny 76 24.4 35 1.7 23 23 VRB 3 6 29.88 1012 10 16 0.00 0.00
4:53 pm 16:53 Sunny 75 23.9 35 1.7 23 23 ENE 3 6 29.88 1012 10 16 0.00 0.00
5:53 pm 17:53 Sunny 71 21.7 39 3.9 31 31 ENE 6 9 29.88 1012 10 16 0.00 0.00
6:53 pm 18:53 Clear 62 16.7 41 5 46 46 E 7 11 29.90 1012 10 16 0.00 0.00
7:53 pm 19:53 Clear 56 13.3 42 5.6 60 60 ENE 12 19 29.93 1014 10 16 0.00 0.00
8:53 pm 20:53 Clear 51 10.6 40 4.4 66 66 ENE 10 17 29.95 1014 10 16 0.00 0.00
9:53 pm 21:53 Clear 48 8.9 39 3.9 71 71 ENE 10 17 29.95 1014 10 16 0.00 0.00
10:53 pm 22:53 Clear 46 7.8 36 2.2 68 68 undefined N/A 29.94 1014 10 16 0.00 0.00
11:53 pm 23:53 Clear 44 6.7 35 1.7 71 71 ENE 10 17 29.93 1014 10 16 0.00 0.00

Powered by AerisWeather